Theta_e
310 310 311 311 313 314 315 317 317 317 316 317 318 319 319 320 315 314 313 313 308 303 305 309 312 310 307 308 304 307 304 311 311 308 306 307 305 308 307 309 308 307 305 304 306 303 300 315 314 309 314 319 318 320
309 310 311 312 313 314 315 315 315 315 316 316 317 318 319 318 316 314 309 314 313 305 305 312 314 316 316 314 309 311 307 307 311 311 312 311 307 311 309 304 312 306 310 307 309 308 318 319 318 321 320 319 320 322
309 310 311 313 313 314 315 314 314 314 315 315 316 317 318 318 316 314 311 311 309 304 305 310 311 317 319 318 317 307 310 312 311 315 312 314 309 312 305 307 309 312 314 311 312 315 317 318 320 322 324 321 323 323
309 309 310 312 312 314 313 313 313 314 314 314 315 315 315 316 315 315 311 313 309 305 298 307 316 314 319 319 316 315 314 315 313 314 310 313 311 315 313 312 311 313 314 314 312 316 317 319 321 323 324 324 324 326
309 309 310 311 312 313 313 313 313 313 312 313 313 314 315 315 313 313 313 313 313 305 298 301 310 315 317 317 315 315 314 313 312 309 308 310 315 314 317 315 311 315 314 310 308 318 318 319 323 324 324 324 325 325
309 309 310 311 311 312 311 311 312 312 312 312 312 313 312 311 311 309 303 312 314 310 300 296 312 312 314 313 314 314 314 313 312 309 310 313 316 313 310 309 314 318 317 320 317 320 324 325 325 325 325 325 325 326
308 309 309 310 311 311 311 311 311 310 311 311 312 311 311 311 310 304 302 307 311 313 302 297 301 312 314 313 309 310 314 313 311 310 312 312 311 311 308 306 317 317 319 320 322 321 321 323 321 326 326 326 325 327
308 309 308 309 310 310 311 311 310 310 310 310 311 311 311 310 310 307 312 309 312 306 305 297 299 306 314 307 303 312 309 311 311 310 314 311 311 311 303 313 315 318 319 320 322 323 323 325 326 326 327 328 326 326
307 308 309 309 309 310 310 310 310 310 310 310 310 311 310 309 305 308 314 314 311 306 298 300 295 296 312 308 308 307 308 303 310 305 306 308 307 304 308 312 314 314 316 319 320 322 322 322 325 327 327 327 326 326
307 307 309 309 309 310 310 310 310 310 310 310 309 305 302 308 314 314 310 303 302 303 304 299 302 296 305 309 304 305 307 303 301 305 310 306 305 314 318 318 321 321 321 321 318 319 320 320 323 326 326 327 327 327
306 307 308 309 309 310 310 310 310 309 308 312 304 303 310 312 310 306 302 301 302 300 304 304 304 299 308 302 306 308 305 306 300 305 304 304 303 311 316 319 322 321 323 323 323 323 325 323 323 324 326 327 328 329
305 306 307 308 309 310 309 309 309 310 311 307 306 308 306 304 305 300 300 302 300 296 303 300 304 306 307 309 309 311 306 308 299 308 304 301 310 317 320 320 321 320 320 320 321 321 323 323 323 323 324 326 329 331
305 305 306 307 308 309 310 309 308 309 309 309 304 300 302 305 295 295 293 297 295 302 307 308 305 307 308 309 311 311 303 303 311 306 303 308 317 319 321 322 322 323 321 321 320 321 322 323 323 323 324 326 330 330
305 306 306 308 308 309 309 308 308 309 309 302 300 292 298 296 299 301 299 300 306 307 310 310 310 308 308 309 310 303 308 310 302 300 301 313 318 321 323 324 324 321 322 321 320 321 321 322 323 325 324 328 330 329
305 306 307 308 309 309 308 308 308 312 307 300 301 293 298 304 303 307 308 308 311 312 312 313 312 312 309 307 310 307 302 300 303 303 311 316 322 324 324 325 327 327 326 325 321 319 320 322 325 326 327 329 331 331
305 306 308 308 308 308 308 308 308 311 305 302 301 299 304 304 304 308 307 308 314 312 314 315 308 305 304 307 303 300 299 299 305 313 317 321 324 325 325 325 326 328 327 327 328 328 327 326 325 325 328 330 330 331
305 305 308 309 309 309 307 306 304 300 299 299 300 305 304 304 303 305 308 306 312 311 309 310 302 301 310 303 301 308 305 310 317 321 321 325 325 324 324 325 324 324 325 326 327 329 329 330 329 330 329 331 330 330
305 307 308 308 309 307 306 304 300 299 295 300 299 303 307 306 305 307 309 310 308 308 310 307 310 304 303 300 303 310 316 319 321 321 323 325 326 325 323 323 325 326 326 326 328 328 328 328 328 329 330 330 328 329
305 306 307 308 306 303 300 300 301 295 299 302 304 305 306 306 308 309 309 311 310 312 310 310 304 305 308 310 311 315 319 322 320 318 321 325 326 325 325 324 324 324 324 324 323 322 323 326 325 326 328 328 325 325
306 307 307 307 308 301 298 300 305 300 298 302 305 304 305 305 308 309 309 309 309 309 306 305 305 308 308 311 314 315 317 319 319 316 316 320 323 324 324 323 323 324 324 324 323 311 320 323 325 325 324 324 327 326
305 306 306 310 308 304 302 302 301 302 303 300 306 306 305 307 306 306 306 309 306 304 303 308 308 310 313 314 314 314 316 316 314 314 315 317 321 324 324 323 323 322 320 319 318 318 313 321 323 324 325 322 329 329
308 306 307 308 303 304 302 305 301 304 301 301 301 304 302 302 304 307 311 305 304 306 307 308 310 311 312 314 316 318 317 317 318 315 305 310 316 318 319 320 320 319 320 319 319 318 319 320 325 326 323 320 319 325
306 309 303 304 298 296 297 306 299 301 298 300 304 300 302 303 305 310 304 307 309 313 313 313 315 318 317 319 319 318 319 318 314 314 316 315 317 319 318 319 321 320 319 319 320 320 320 312 319 322 324 323 324 325
306 302 297 296 298 294 302 298 300 300 301 300 300 299 302 305 311 307 302 307 316 318 319 318 321 318 318 317 315 316 316 317 315 315 316 316 316 316 317 317 318 318 319 320 321 321 322 322 314 322 322 323 323 322
293 293 293 289 299 296 293 294 296 297 297 300 299 300 304 309 304 303 304 309 314 315 315 314 319 318 317 320 321 320 320 316 314 313 315 317 316 316 319 322 323 323 324 322 321 322 322 323 324 323 323 322 322 321
288 296 291 295 296 295 296 293 295 296 298 299 300 304 307 303 300 300 306 308 310 311 311 316 313 312 315 322 320 321 320 322 320 316 319 322 322 322 322 321 319 321 326 324 322 321 321 322 322 322 322 320 303 318
288 293 299 304 300 299 298 302 302 300 298 298 304 303 300 295 295 303 311 314 312 315 319 320 319 318 319 324 325 326 326 327 325 324 327 327 327 328 324 323 321 323 324 323 321 319 317 318 319 321 321 322 322 322
296 298 293 297 298 300 296 298 298 298 300 305 303 297 294 296 299 308 311 316 316 319 320 320 322 324 322 324 326 326 327 327 325 325 325 325 326 327 327 327 327 300 321 321 317 320 319 318 317 319 322 322 324 325
295 299 298 295 297 299 300 298 301 303 303 302 299 298 299 305 309 311 313 316 321 320 316 318 325 327 323 326 327 327 326 324 321 318 316 319 322 322 326 327 322 320 323 322 298 306 319 321 321 324 325 322 323 324
296 301 297 296 296 296 300 304 304 307 309 306 308 308 308 310 313 316 317 319 317 315 318 321 322 319 318 320 319 322 327 327 325 324 320 318 323 326 327 327 325 322 318 321 322 320 301 318 314 323 322 322 322 321
302 301 297 299 299 303 306 308 309 309 308 307 309 305 304 308 313 320 318 318 317 316 315 316 315 319 318 318 318 321 320 324 326 325 325 325 324 325 325 324 325 324 323 322 321 320 322 320 320 319 320 320 319 317
300 298 299 297 300 306 307 305 306 306 308 305 305 308 311 312 310 316 319 319 317 313 307 314 316 312 322 324 324 324 311 323 323 324 324 324 324 324 325 325 325 323 321 318 319 319 319 319 318 317 318 318 316 313
299 300 300 299 300 301 308 307 307 306 308 308 310 312 313 312 307 315 321 323 319 317 316 318 322 324 325 324 324 322 317 323 308 295 297 296 296 305 321 324 324 322 321 319 316 316 314 314 313 313 313 312 312 313
Wind_Speed
11 12 12 12 14 14 15 13 7 6 7 8 9 8 7 1 14 5 2 5 2 3 7 6 11 10 6 5 5 5 3 6 8 10 11 9 11 11 17 18 18 15 12 12 14 13 15 11 11 14 4 2 6 7
12 13 11 13 13 14 14 8 7 7 8 8 8 7 7 4 13 6 1 2 3 2 6 5 13 16 16 13 6 4 5 5 5 6 4 5 5 3 14 10 4 15 13 11 10 12 3 16 13 14 3 5 6 6
11 10 11 13 13 14 4 6 7 8 11 10 9 8 6 4 12 7 2 2 2 2 6 12 14 15 15 15 11 6 6 7 5 4 7 3 7 7 8 10 14 7 2 7 6 9 10 14 14 6 7 7 7 7
11 9 10 11 12 9 6 7 7 8 9 11 10 7 4 4 7 8 2 3 1 1 4 6 5 9 7 14 16 17 16 9 6 5 5 5 5 3 2 4 8 3 10 9 9 3 6 8 15 12 8 7 6 8
8 8 9 10 11 8 7 7 8 8 8 9 10 9 6 3 3 2 2 4 4 2 3 6 17 22 21 17 21 16 17 16 9 7 6 8 3 5 3 3 5 6 7 8 5 9 10 10 16 15 12 12 10 11
8 8 8 7 9 7 8 9 9 9 9 9 8 6 3 2 1 1 3 3 5 3 3 4 7 9 6 6 14 14 13 9 9 6 6 6 3 5 4 5 2 5 3 6 3 4 10 3 8 16 14 13 12 12
9 8 7 8 8 7 7 8 8 8 9 9 6 4 3 2 1 3 2 2 1 4 2 4 6 6 4 7 4 8 10 6 5 6 6 4 2 3 7 12 3 4 2 4 2 3 6 8 5 11 12 11 10 10
9 9 9 8 8 7 7 8 8 9 9 9 7 6 6 5 7 5 2 10 2 2 3 3 5 5 4 7 4 3 7 6 7 6 4 5 5 5 6 13 14 14 13 7 8 9 6 3 7 10 10 11 13 11
8 9 8 8 8 7 7 8 9 10 10 10 10 9 3 3 2 0 3 4 4 2 3 2 3 3 5 4 8 4 4 5 2 6 7 5 7 6 10 15 16 16 12 11 12 10 9 6 9 13 13 13 12 11
7 8 8 8 8 7 6 8 10 11 13 10 3 1 2 2 6 5 5 4 3 4 5 3 4 5 3 5 7 7 5 7 6 9 6 7 12 13 11 8 11 10 10 11 13 12 11 10 11 13 14 11 10 9
6 7 8 9 9 7 5 6 9 11 9 3 2 2 3 5 3 3 4 4 5 3 3 2 5 4 2 4 4 5 4 8 5 6 6 5 5 8 10 16 16 14 9 10 10 6 10 11 9 9 8 6 7 8
6 7 7 9 7 7 5 5 8 6 3 4 3 4 3 3 4 5 3 4 4 3 6 3 3 3 3 2 5 5 3 3 2 7 5 3 5 4 5 6 10 17 17 15 12 8 4 6 6 6 6 7 7 8
6 7 8 9 8 8 5 4 4 7 10 1 2 2 3 2 4 4 3 3 1 4 4 5 4 3 4 3 5 3 5 3 5 5 4 2 5 3 4 5 4 8 12 14 14 11 7 7 5 2 4 4 7 10
7 8 9 9 10 8 5 4 5 6 5 3 3 4 4 4 5 2 3 3 3 3 7 5 4 8 7 5 6 4 2 3 4 3 2 5 5 5 4 4 2 3 5 9 13 14 13 11 7 4 3 7 10 11
8 9 9 12 8 5 3 3 4 3 3 3 3 4 6 4 2 6 3 5 2 6 6 4 4 3 4 2 2 1 2 2 2 4 7 6 5 5 6 6 7 7 6 4 3 8 11 11 11 9 7 8 10 11
8 10 4 2 2 3 3 2 2 2 3 4 5 6 4 3 4 3 4 3 3 5 5 3 3 4 3 2 3 4 2 2 5 4 6 6 6 6 7 6 6 6 7 8 7 3 5 8 8 6 8 9 10 10
6 2 3 6 8 5 3 1 1 3 3 4 5 6 6 6 3 6 5 5 6 5 3 3 4 2 1 3 3 2 2 8 5 4 4 5 5 5 5 6 7 7 8 7 8 9 8 7 4 6 9 9 9 9
3 2 5 6 3 4 1 1 2 3 6 6 7 4 3 5 5 5 5 3 5 5 4 4 4 3 2 3 3 6 3 3 4 4 4 4 3 2 3 4 5 6 7 8 8 7 7 7 4 3 3 5 7 9
3 2 4 5 1 1 2 4 3 4 6 5 5 5 6 6 6 7 8 6 4 5 6 3 4 3 1 3 4 4 2 2 3 4 4 3 1 1 2 1 2 4 5 6 5 5 5 6 5 5 3 2 4 6
4 4 6 3 5 1 3 2 2 5 4 3 4 6 5 6 5 5 6 6 5 5 4 4 4 4 4 5 5 4 4 3 1 3 4 4 2 3 2 3 1 2 1 0 1 1 4 1 2 3 5 5 3 4
4 2 2 4 4 4 4 3 4 3 4 4 5 5 4 4 6 7 7 7 7 8 8 7 7 7 6 6 6 5 3 3 4 4 3 1 1 1 2 2 3 3 4 4 4 3 5 3 3 2 1 2 2 2
2 2 1 2 3 3 3 3 4 3 4 4 4 3 4 4 4 4 2 6 6 8 9 8 8 7 7 8 7 8 9 9 7 4 5 3 6 4 5 5 5 5 5 5 6 7 6 5 1 2 4 4 8 0
1 3 1 3 3 2 3 2 5 3 4 2 2 4 4 3 2 2 4 4 3 3 4 4 4 6 7 8 8 8 8 9 9 9 7 6 5 5 6 5 6 7 8 8 7 7 7 3 2 4 2 3 4 5
2 2 2 3 5 4 3 3 2 4 3 4 4 4 3 2 4 3 5 3 1 1 1 1 3 4 4 7 6 5 6 8 9 9 7 7 6 7 7 7 7 8 8 8 9 8 7 7 3 6 6 4 5 6
2 3 2 4 4 5 4 4 5 5 5 2 4 5 1 1 3 3 2 2 3 3 4 3 4 4 6 5 5 2 4 5 6 6 6 4 6 6 6 5 6 6 5 7 8 8 8 8 7 7 7 7 5 5
3 5 4 4 2 5 2 3 2 4 4 5 2 2 2 3 4 1 3 2 2 2 3 5 4 4 5 5 3 2 3 3 3 4 3 4 4 3 4 4 5 4 4 6 7 9 10 9 9 9 8 7 5 6
3 5 4 3 1 3 5 4 6 4 5 3 2 2 0 2 3 2 2 2 2 3 5 4 4 4 5 3 2 1 2 1 2 2 2 1 1 1 3 3 4 4 6 6 5 5 7 7 8 7 8 6 5 6
4 4 5 3 4 4 5 4 4 2 3 3 5 3 3 3 2 1 2 4 5 8 6 6 4 4 4 4 3 2 2 2 3 3 4 4 3 2 3 3 3 0 5 7 7 3 3 4 5 9 8 5 5 5
4 3 3 7 6 5 4 4 3 3 1 1 2 2 2 3 3 3 7 6 6 6 5 4 1 1 2 2 2 1 2 4 3 4 4 2 3 4 4 2 5 4 6 7 9 9 3 5 8 3 7 6 6 7
5 5 4 4 5 5 4 4 6 7 5 5 3 2 4 5 6 8 7 5 4 4 3 2 1 1 3 1 4 4 2 1 2 3 3 2 3 3 2 1 3 5 1 5 7 8 5 10 9 9 9 9 9 9
1 4 5 5 5 6 7 9 10 9 7 5 6 7 8 7 5 3 3 3 3 4 3 1 1 1 2 6 1 4 5 6 8 7 5 5 5 5 5 5 5 5 6 6 7 7 11 12 11 13 14 15 14 13
5 7 5 5 5 3 7 6 5 6 4 5 5 7 6 3 3 2 1 2 2 0 2 4 5 1 1 3 5 7 8 7 6 4 7 7 7 6 6 6 6 9 11 6 8 6 10 13 12 12 14 17 15 13
6 6 5 6 5 5 1 4 3 3 3 3 3 4 4 2 2 3 3 1 3 1 2 4 3 5 5 8 7 6 8 9 11 12 13 14 14 9 6 8 8 10 12 10 11 12 14 17 15 16 16 16 15 15
Wind_Direction
316 313 314 321 322 322 324 324 349 345 326 324 334 332 335 314 165 167 119 177 180 221 276 276 288 252 263 255 273 31 312 227 255 243 241 224 240 202 228 202 189 183 196 209 228 218 238 147 166 203 218 116 192 193
314 314 317 326 328 326 324 333 351 348 348 344 336 331 313 263 175 164 187 179 173 230 281 306 280 278 277 281 297 246 267 298 299 276 250 301 226 221 216 180 240 210 207 207 215 214 115 174 204 211 224 212 191 200
310 315 331 334 334 322 334 342 345 344 341 339 343 359 351 167 162 173 167 143 186 248 261 238 248 237 227 233 228 246 254 246 254 6 315 292 265 310 203 230 180 193 191 219 160 195 178 194 209 215 193 227 190 187
307 323 325 329 332 341 340 335 342 350 352 351 340 340 345 213 191 194 201 163 239 308 270 270 204 247 244 218 219 229 241 274 265 301 302 285 276 353 47 11 245 69 165 167 197 122 174 213 220 204 204 203 193 154
317 315 320 331 332 339 335 334 340 342 342 342 336 331 319 192 171 250 249 209 209 246 304 292 310 271 239 235 239 225 224 233 253 249 232 261 297 308 147 277 196 195 147 204 202 163 209 200 209 201 196 192 184 173
310 307 309 316 330 335 338 338 336 339 330 326 336 349 13 55 44 252 268 175 193 169 268 285 300 278 226 233 201 212 207 208 236 232 235 269 220 309 286 249 195 187 151 284 346 351 225 26 198 188 195 191 179 176
303 293 297 299 309 318 325 332 337 334 335 334 334 331 323 308 255 236 298 14 184 179 248 269 264 169 249 149 181 213 201 203 219 217 243 262 103 12 282 273 345 38 301 238 283 264 200 209 162 179 196 177 159 154
297 313 292 289 287 300 317 315 322 322 313 308 307 297 284 269 258 260 244 196 188 240 234 264 288 272 193 186 106 223 175 193 193 237 179 212 151 196 234 259 266 276 281 292 241 237 303 287 197 171 173 159 169 171
301 315 309 301 287 287 304 312 310 309 305 302 291 286 263 214 233 261 169 174 177 272 300 252 317 298 338 178 137 180 207 183 127 230 237 233 186 214 220 240 260 262 252 252 257 236 224 225 179 168 171 180 188 181
306 310 325 311 296 278 292 305 308 309 302 297 274 295 234 166 319 222 169 161 183 199 217 259 179 248 284 219 166 179 193 205 191 207 198 233 242 217 226 235 271 283 275 251 246 224 210 215 194 181 188 194 202 194
303 310 318 321 307 288 283 309 316 316 260 218 347 278 316 306 231 208 232 215 175 225 198 249 227 260 193 270 210 213 190 165 226 150 215 197 241 228 237 234 235 240 247 226 246 249 217 221 192 173 179 189 202 191
300 305 312 317 308 313 296 317 314 285 6 330 320 286 302 267 231 241 208 159 206 240 159 254 257 218 277 268 254 185 242 212 244 141 207 251 95 46 295 271 252 241 234 234 249 250 208 174 166 160 168 172 194 192
294 305 305 305 293 304 278 293 295 291 277 233 222 243 233 246 264 241 208 144 179 219 227 197 175 216 218 227 265 230 205 199 138 196 201 86 44 3 335 311 266 222 228 237 239 248 220 187 181 211 204 166 180 185
293 302 297 294 289 283 247 283 298 283 264 274 290 270 246 225 242 304 53 253 273 251 281 298 221 197 190 226 232 209 97 231 209 187 151 68 42 12 10 24 86 127 197 219 229 226 209 199 207 206 95 207 197 184
296 295 296 287 262 218 224 258 293 268 278 255 258 251 228 270 253 277 315 286 261 260 296 288 244 259 206 227 302 16 207 235 280 48 62 74 56 39 46 48 60 61 65 77 206 211 214 201 193 175 178 193 201 179
302 293 238 257 244 229 204 256 259 255 235 257 236 269 254 281 311 290 347 333 348 298 293 249 275 230 195 300 196 219 245 229 77 77 99 110 72 57 45 45 53 51 47 50 55 88 188 200 208 150 190 200 200 183
288 229 351 296 248 180 168 228 245 226 270 261 243 243 263 277 254 279 316 328 329 291 306 297 270 33 358 240 217 228 345 65 112 110 94 82 85 61 29 44 58 58 49 42 39 46 54 62 77 177 192 190 191 174
237 23 351 128 156 113 165 220 264 239 237 244 254 269 264 280 289 263 271 334 322 340 343 353 302 275 292 303 337 54 64 94 97 93 98 113 114 65 26 47 55 67 67 53 47 49 40 31 47 99 137 170 184 180
27 326 360 192 253 225 224 198 222 259 242 281 274 262 258 269 266 271 276 277 298 301 296 266 267 262 233 63 12 352 46 69 110 103 111 146 186 274 285 190 120 98 76 62 40 41 59 36 33 42 59 158 231 195
278 263 282 241 227 241 258 194 274 273 272 339 280 267 265 267 278 264 260 264 252 263 244 230 265 333 359 35 10 51 39 29 333 124 124 134 146 190 192 254 106 64 244 351 77 278 11 323 66 28 40 34 284 210
205 204 206 223 202 217 272 271 220 226 310 285 296 301 276 239 240 242 239 233 230 234 249 251 273 289 306 303 301 297 284 318 6 353 18 211 98 295 212 198 229 275 297 317 321 326 229 345 343 358 129 322 86 253
119 174 276 192 257 215 256 233 284 319 264 279 292 242 273 264 254 214 212 216 243 239 241 257 273 287 281 272 266 243 253 252 236 259 230 214 247 226 228 242 243 257 265 284 291 298 303 299 285 306 336 10 319 322
259 179 235 251 250 277 264 216 251 212 256 269 258 250 226 230 234 190 243 232 264 251 249 250 264 267 268 282 272 254 240 228 233 229 240 247 250 247 260 259 253 261 269 273 276 278 292 5 185 266 304 236 261 286
273 256 238 221 220 253 220 226 254 274 260 240 228 251 231 226 175 228 247 206 171 102 130 358 289 278 257 233 244 232 213 213 232 227 231 243 246 250 260 274 272 267 270 280 284 277 262 255 222 228 235 257 267 255
195 227 190 258 223 242 226 232 231 215 248 256 262 258 216 196 247 241 247 92 49 51 10 315 337 332 315 305 287 230 190 230 230 228 220 228 259 262 263 277 269 277 297 286 270 260 254 249 246 247 252 263 283 286
241 198 203 218 191 246 229 276 300 331 310 264 241 294 7 314 277 348 21 24 346 334 292 323 314 301 286 286 292 231 129 201 219 236 212 226 256 266 280 293 299 353 12 307 302 293 275 257 249 248 251 253 175 255
245 225 204 209 216 285 262 283 272 258 250 264 340 318 326 270 303 326 352 314 314 294 286 275 266 283 279 305 13 61 195 204 265 330 42 221 92 359 313 9 51 18 342 336 320 276 276 274 282 273 260 237 230 226
272 282 231 214 220 232 274 278 259 277 355 17 343 6 336 308 284 258 244 320 283 285 299 299 286 284 304 308 293 228 130 174 169 196 165 165 142 141 143 120 40 85 308 18 342 276 248 229 219 238 236 193 147 168
243 216 240 241 218 236 233 267 323 41 229 252 297 258 250 239 260 277 289 286 288 297 304 304 138 239 188 179 141 202 211 198 191 208 216 148 153 158 163 120 106 21 348 69 60 26 77 172 215 133 85 99 125 133
234 197 229 224 227 228 224 155 231 239 194 206 256 275 264 260 266 275 281 289 306 313 311 318 300 27 249 313 54 93 129 102 29 25 35 56 89 108 119 45 47 114 68 335 78 118 162 121 125 121 117 118 114 109
261 207 240 244 259 244 231 224 233 253 265 233 221 244 257 269 281 242 256 298 317 342 343 354 129 83 303 115 169 87 88 65 47 43 35 73 81 79 74 80 87 78 77 57 86 90 95 87 87 92 94 92 91 88
209 222 240 251 268 266 278 260 249 239 218 202 223 226 235 225 241 179 117 300 344 40 50 3 78 85 298 80 77 72 48 101 126 98 76 76 77 85 100 105 104 97 97 88 73 76 96 89 93 96 97 96 89 82
221 234 244 267 254 243 208 285 252 258 225 250 206 215 225 198 136 95 144 30 29 32 104 135 124 91 70 60 78 88 68 70 68 53 49 38 19 3 83 89 97 104 97 104 109 102 99 98 96 98 100 104 108 110